Погода в Рорвике

Норвегия     64°51′42″N   11°13′43″E
темп.,
°C
ветер,
м/с
пор.,
м/с
влажн.,
%
обл.,
%
осадки,
мм/ч
давл.,
гПа
погр.,
м
1 декабря, ср
ср101:00−2юв768796 0.5 992325
04:000юв7677100 0.4 991303
07:00+1ююв6674100 1.1 990752
10:00+3ссв356093 1.4 990761
13:00+3с785791 2.0 9901363
16:00+1ссв697593 0.3 991940
19:00+1св686425 1.3 9921205
22:000св3471100 0.5 992752
2 декабря, чт
чт201:000вюв2274100 1.1 992485
04:00−1в338192 0.5 992468
07:00−2в567641 0.6 993445
10:00−2в8105817 0.0 9971031
13:00−2всв78552 0.0 9981063
16:00−2в69535 0.0 9991409
19:00−2в57532 0.0 1000968
22:00−4вюв56645 0.0 1001542
3 декабря, пт
пт301:00−4вюв68685 0.0 1001656
04:00−4вюв710710 0.0 1001575
07:00−4вюв812721 0.0 1002745
10:00−4вюв1014733 0.0 1001722
13:00−4юв1115735 0.0 1000652
16:00−3вюв1216722 0.0 1000761
19:00−3вюв1418685 0.0 1000925
22:00−2вюв15206776 0.0 1000965
4 декабря, сб
сб401:00−2вюв16216761 0.0 10001012
04:00−2вюв18236834 0.1 10001124
07:00−2вюв21267188 0.1 10001195
10:00−2вюв20256749 0.0 10021268
13:00−2вюв1923667 0.0 10041027
16:00−3вюв19226886 0.0 1005995
19:00−3вюв1721696 0.0 10081026
22:00−4вюв16207043 0.0 1010966
5 декабря, вс
вс501:00−4вюв15187146 0.0 1012905
04:00−5вюв14177296 0.0 1014788
07:00−5вюв1216715 0.0 1015704
10:00−5вюв1115715 0.0 1017705
13:00−6вюв1114715 0.0 1019668
16:00−6вюв1114745 0.0 1019630
19:00−6вюв1012765 0.0 1021587
22:00−7вюв1013775 0.0 1021572